KBID Airport (Block Island State) Information

FAA: BID - ICAO: KBID

KBID Airport Location

State Rhode Island
County Washington
City Block Island
KBID Airport is 1 miles west of Block Island, RI.
Latitude 41-10-05.2000N
Longitude 071-34-40.2000W
Elevation 107ft

KBID Airport METARs

METAR KBID 121456Z AUTO 06006KT 10SM FEW100 23/16 A2998 RMK AO2 SLP152 T02280161 51007
Altimeter 29.98"
Temperature 22.8°C (73.0°F)
Wind 60° at 6KT
Clouds few at 10,000ft
Visibility 10.0mi
Time observed: 2022-08-12T14:56:00Z

KBID Airport Details

Status Operational
Activation June 1950
Ownership Public
Usage Public
Chart NEW YORK
ATC on-site No
Beacon schedule sunset-sunrise
Beacon color clear green

KBID Airport Contacts

Owner STATE OF RHODE ISLAND
Owner address RI AIRPORT CORPORATION, 2000 POST RD, WARWICK, RI 02886
Owner phone 401-691-2227
Manager WILLIAM K. POUST
Manager address RD 2, P.O. BOX 575, MONTGOMERY, PA 17752
Manager phone N/A

KBID Airport (Block Island State) Radio Frequencies

KBID (Airport) Radio Frequencies

UNICOM 123
Common traffic advisory frequency (CTAF) 123